NCA94 PANC-RJTT

Flight info

Callsign NCA94
Flight time N/A
Altitude 34000
Route NODLE R220 NICHO M523 HIRAM DCT NOLTI/N0483F350 R220 NIKLL/N0496F360 R220 NOGAL/N0480F370 R220 NANAC/N0481F380 R220 IXE Y88 DAIGO Y10 GODIN
Aircraft B748/H-SDE3FGHIM1M2RWXY/LB1

Departure

Time 2026-05-05 18:29
Airport Ted Stevens Anchorage International Airport (PANC)

Arrival

Time N/A
Airport Tokyo Haneda International Airport (RJTT)
Time Latitude Longitude Altitude Speed Heading
2026-05-05 17:56 61.19324 -149.99786 121 ft 0 kts 309°
2026-05-05 18:14 61.19323 -149.99784 121 ft 2 kts 309°
2026-05-05 18:14 61.19308 -149.99748 117 ft 4 kts 329°
2026-05-05 18:14 61.19285 -149.99726 116 ft 4 kts 339°
2026-05-05 18:14 61.19269 -149.99713 117 ft 2 kts 309°
2026-05-05 18:15 61.19254 -149.99674 117 ft 4 kts 290°
2026-05-05 18:15 61.19248 -149.99628 117 ft 4 kts 263°
2026-05-05 18:15 61.19254 -149.99576 115 ft 4 kts 249°
2026-05-05 18:15 61.19261 -149.99538 114 ft 0 kts 255°
2026-05-05 18:18 61.19260 -149.99545 114 ft 1 kts 255°
2026-05-05 18:19 61.19257 -149.99563 114 ft 2 kts 255°
2026-05-05 18:19 61.19249 -149.99622 116 ft 6 kts 254°
2026-05-05 18:19 61.19234 -149.99737 120 ft 10 kts 255°
2026-05-05 18:19 61.19213 -149.99895 126 ft 12 kts 255°
2026-05-05 18:20 61.19190 -150.00073 139 ft 13 kts 255°
2026-05-05 18:20 61.19175 -150.00193 150 ft 12 kts 255°
2026-05-05 18:20 61.19146 -150.00418 148 ft 13 kts 255°
2026-05-05 18:20 61.19118 -150.00627 152 ft 17 kts 255°
2026-05-05 18:21 61.19082 -150.00906 153 ft 22 kts 255°
2026-05-05 18:21 61.19062 -150.01061 157 ft 14 kts 255°
2026-05-05 18:21 61.19004 -150.01211 156 ft 8 kts 185°
2026-05-05 18:21 61.18931 -150.01176 155 ft 15 kts 164°
2026-05-05 18:22 61.18811 -150.01106 156 ft 21 kts 165°
2026-05-05 18:22 61.18707 -150.01051 154 ft 26 kts 165°
2026-05-05 18:22 61.18524 -150.00946 152 ft 28 kts 165°
2026-05-05 18:22 61.18330 -150.00840 144 ft 29 kts 166°
2026-05-05 18:23 61.18143 -150.00736 143 ft 27 kts 164°
2026-05-05 18:23 61.17972 -150.00633 147 ft 24 kts 163°
2026-05-05 18:23 61.17772 -150.00527 145 ft 23 kts 165°
2026-05-05 18:23 61.17671 -150.00469 144 ft 22 kts 165°
2026-05-05 18:24 61.17523 -150.00384 142 ft 22 kts 163°
2026-05-05 18:24 61.17379 -150.00305 139 ft 21 kts 166°
2026-05-05 18:24 61.17279 -150.00251 141 ft 15 kts 165°
2026-05-05 18:24 61.17173 -150.00199 139 ft 12 kts 180°
2026-05-05 18:25 61.17124 -150.00307 139 ft 10 kts 265°
2026-05-05 18:25 61.17125 -150.00417 141 ft 13 kts 271°
2026-05-05 18:25 61.17126 -150.00712 143 ft 16 kts 268°
2026-05-05 18:25 61.17104 -150.00819 145 ft 2 kts 217°
2026-05-05 18:26 61.17093 -150.00827 145 ft 2 kts 200°
2026-05-05 18:26 61.17080 -150.00831 146 ft 2 kts 187°
2026-05-05 18:26 61.17062 -150.00830 147 ft 4 kts 178°
2026-05-05 18:26 61.17022 -150.00828 149 ft 8 kts 178°
2026-05-05 18:27 61.16987 -150.00805 148 ft 3 kts 141°
2026-05-05 18:27 61.16978 -150.00768 147 ft 4 kts 107°
2026-05-05 18:27 61.16977 -150.00741 147 ft 0 kts 90°
2026-05-05 18:27 61.16977 -150.00737 147 ft 1 kts 90°
2026-05-05 18:28 61.16977 -150.00449 143 ft 38 kts 89°
2026-05-05 18:28 61.16978 -149.99407 135 ft 104 kts 90°
2026-05-05 18:28 61.16982 -149.97520 127 ft 155 kts 89°
2026-05-05 18:29 61.16969 -149.95078 434 ft 173 kts 89°
2026-05-05 18:29 61.16996 -149.92729 1355 ft 164 kts 89°
2026-05-05 18:29 61.16779 -149.90212 1822 ft 180 kts 108°
2026-05-05 18:29 61.16405 -149.87790 2261 ft 182 kts 109°
2026-05-05 18:30 61.15516 -149.85702 2050 ft 216 kts 150°
2026-05-05 18:30 61.13958 -149.84997 2081 ft 240 kts 178°
2026-05-05 18:30 61.12268 -149.85544 2128 ft 261 kts 202°
2026-05-05 18:30 61.10858 -149.87882 2651 ft 263 kts 233°
2026-05-05 18:31 61.10158 -149.91376 3088 ft 270 kts 264°
2026-05-05 18:31 61.10301 -149.95237 3866 ft 271 kts 281°
2026-05-05 18:31 61.10700 -149.99091 4574 ft 276 kts 283°
2026-05-05 18:31 61.11124 -150.03028 5274 ft 282 kts 281°
2026-05-05 18:32 61.11499 -150.06992 5952 ft 287 kts 279°
2026-05-05 18:32 61.11876 -150.11138 6619 ft 291 kts 279°
2026-05-05 18:32 61.12258 -150.15197 7366 ft 291 kts 279°
2026-05-05 18:32 61.12649 -150.19304 8115 ft 291 kts 278°
2026-05-05 18:33 61.13037 -150.23428 8856 ft 292 kts 278°
2026-05-05 18:33 61.13420 -150.27545 9624 ft 291 kts 278°
2026-05-05 18:33 61.13804 -150.31676 10220 ft 296 kts 278°
2026-05-05 18:33 61.14206 -150.36037 10243 ft 321 kts 278°
2026-05-05 18:34 61.14639 -150.40733 10295 ft 343 kts 278°
2026-05-05 18:34 61.15096 -150.45665 10758 ft 349 kts 279°
2026-05-05 18:34 61.15554 -150.50629 11405 ft 352 kts 279°
2026-05-05 18:34 61.16009 -150.55628 12022 ft 354 kts 279°
2026-05-05 18:35 61.16465 -150.60664 12603 ft 357 kts 279°
2026-05-05 18:35 61.16924 -150.65735 13163 ft 360 kts 279°
2026-05-05 18:35 61.17379 -150.70785 13685 ft 362 kts 279°
2026-05-05 18:35 61.17841 -150.75934 14154 ft 365 kts 279°
2026-05-05 18:36 61.18305 -150.81134 14607 ft 368 kts 279°
2026-05-05 18:36 61.18769 -150.86363 15076 ft 370 kts 279°
2026-05-05 18:36 61.19236 -150.91640 15536 ft 373 kts 279°
2026-05-05 18:36 61.19704 -150.96962 16012 ft 375 kts 279°
2026-05-05 18:37 61.20171 -151.02297 16451 ft 378 kts 279°
2026-05-05 18:37 61.20641 -151.07686 16900 ft 380 kts 279°
2026-05-05 18:37 61.21111 -151.13105 17353 ft 383 kts 279°
2026-05-05 18:37 61.21582 -151.18554 17797 ft 385 kts 279°
2026-05-05 18:38 61.22055 -151.24059 18198 ft 388 kts 279°
2026-05-05 18:38 61.22526 -151.29579 18569 ft 390 kts 279°
2026-05-05 18:38 61.22992 -151.35055 18932 ft 391 kts 279°
2026-05-05 18:38 61.23464 -151.40637 19290 ft 393 kts 279°
2026-05-05 18:39 61.23941 -151.46312 19644 ft 395 kts 279°
2026-05-05 18:39 61.24407 -151.51872 19983 ft 397 kts 279°
2026-05-05 18:39 61.24878 -151.57533 20315 ft 399 kts 279°
2026-05-05 18:39 61.25350 -151.63226 20654 ft 400 kts 279°
2026-05-05 18:40 61.25821 -151.68941 20989 ft 402 kts 279°
2026-05-05 18:40 61.26293 -151.74703 21299 ft 404 kts 279°
2026-05-05 18:40 61.26762 -151.80461 21627 ft 405 kts 279°
2026-05-05 18:40 61.27230 -151.86241 21940 ft 407 kts 279°
2026-05-05 18:41 61.27699 -151.92051 22244 ft 408 kts 280°
2026-05-05 18:41 61.28165 -151.97882 22528 ft 410 kts 279°
2026-05-05 18:41 61.28398 -152.03797 22806 ft 412 kts 272°
2026-05-05 18:41 61.28426 -152.09759 23100 ft 413 kts 270°
2026-05-05 18:42 61.28411 -152.15750 23337 ft 415 kts 271°
2026-05-05 18:42 61.28437 -152.21763 23572 ft 417 kts 271°
2026-05-05 18:42 61.28488 -152.27790 23782 ft 418 kts 271°
2026-05-05 18:42 61.28519 -152.33769 23991 ft 420 kts 271°
2026-05-05 18:43 61.28530 -152.39916 24203 ft 421 kts 271°
2026-05-05 18:43 61.28545 -152.45945 24402 ft 422 kts 271°
2026-05-05 18:43 61.28567 -152.52070 24593 ft 424 kts 271°
2026-05-05 18:43 61.28585 -152.58214 24817 ft 425 kts 271°
2026-05-05 18:44 61.28594 -152.64368 25019 ft 427 kts 271°
2026-05-05 18:44 61.28601 -152.70556 25219 ft 428 kts 270°
2026-05-05 18:44 61.28607 -152.76769 25437 ft 430 kts 270°
2026-05-05 18:44 61.28612 -152.82999 25653 ft 431 kts 270°
2026-05-05 18:45 61.28612 -152.89244 25888 ft 433 kts 270°
2026-05-05 18:45 61.28609 -152.95518 26110 ft 434 kts 270°
2026-05-05 18:45 61.28603 -153.01827 26337 ft 436 kts 270°
2026-05-05 18:45 61.28595 -153.08070 26566 ft 437 kts 270°
2026-05-05 18:46 61.28584 -153.14404 26798 ft 439 kts 270°
2026-05-05 18:46 61.28569 -153.20761 27023 ft 441 kts 270°
2026-05-05 18:46 61.28552 -153.27144 27254 ft 442 kts 270°
2026-05-05 18:46 61.28532 -153.33530 27477 ft 444 kts 270°
2026-05-05 18:47 61.28508 -153.40003 27721 ft 445 kts 270°
2026-05-05 18:47 61.28481 -153.46445 27954 ft 447 kts 270°
2026-05-05 18:47 61.28451 -153.52925 28202 ft 449 kts 270°
2026-05-05 18:47 61.28418 -153.59432 28433 ft 451 kts 270°
2026-05-05 18:48 61.28381 -153.65971 28679 ft 452 kts 269°
2026-05-05 18:48 61.28342 -153.72439 28929 ft 454 kts 269°
2026-05-05 18:48 61.28299 -153.79013 29179 ft 456 kts 269°
2026-05-05 18:48 61.28252 -153.85661 29432 ft 457 kts 269°
2026-05-05 18:49 61.28202 -153.92300 29684 ft 459 kts 269°
2026-05-05 18:49 61.28150 -153.98864 29925 ft 461 kts 269°
2026-05-05 18:49 61.28093 -154.05533 30155 ft 462 kts 269°
2026-05-05 18:49 61.28033 -154.12233 30404 ft 464 kts 269°
2026-05-05 18:50 61.27970 -154.18954 30641 ft 465 kts 269°
2026-05-05 18:50 61.27903 -154.25673 30875 ft 468 kts 268°
2026-05-05 18:50 61.27831 -154.32473 31123 ft 470 kts 268°
2026-05-05 18:50 61.27757 -154.39269 31375 ft 472 kts 268°
2026-05-05 18:51 61.27678 -154.46129 31627 ft 474 kts 268°
2026-05-05 18:51 61.27596 -154.53018 31897 ft 477 kts 268°
2026-05-05 18:51 61.27510 -154.59845 32164 ft 479 kts 268°
2026-05-05 18:51 61.27420 -154.66793 32434 ft 482 kts 268°
2026-05-05 18:52 61.27326 -154.73784 32722 ft 484 kts 268°
2026-05-05 18:52 61.27228 -154.80799 33030 ft 487 kts 268°
2026-05-05 18:52 61.27125 -154.87849 33324 ft 490 kts 268°
2026-05-05 18:52 61.27018 -154.94958 33626 ft 492 kts 268°
2026-05-05 18:53 61.26907 -155.02098 33730 ft 497 kts 267°
2026-05-05 18:53 61.26791 -155.09283 33731 ft 495 kts 267°
2026-05-05 18:53 61.26550 -155.23533 33723 ft 491 kts 267°
2026-05-05 18:54 61.26296 -155.37685 33716 ft 490 kts 267°
2026-05-05 18:54 61.26028 -155.51824 33715 ft 490 kts 267°
2026-05-05 18:55 61.25745 -155.65913 33718 ft 490 kts 267°
2026-05-05 18:55 61.25447 -155.80080 33723 ft 490 kts 267°
2026-05-05 18:56 61.25134 -155.94204 33734 ft 489 kts 267°
2026-05-05 18:56 61.24549 -156.08289 33750 ft 489 kts 263°
2026-05-05 18:57 61.23784 -156.22218 33769 ft 488 kts 263°
2026-05-05 18:57 61.22997 -156.36214 33777 ft 488 kts 263°
2026-05-05 18:58 61.22196 -156.50201 33777 ft 488 kts 263°
2026-05-05 18:58 61.21381 -156.64201 33790 ft 488 kts 263°
2026-05-05 18:59 61.20550 -156.78189 33789 ft 488 kts 263°
2026-05-05 18:59 61.19712 -156.92054 33791 ft 487 kts 263°
2026-05-05 19:00 61.18855 -157.05991 33794 ft 487 kts 263°
2026-05-05 19:00 61.17983 -157.19933 33795 ft 487 kts 263°
2026-05-05 19:01 61.17098 -157.33859 33800 ft 487 kts 262°
2026-05-05 19:01 61.16198 -157.47768 33805 ft 487 kts 262°
2026-05-05 19:02 61.15285 -157.61661 33805 ft 486 kts 262°
2026-05-05 19:02 61.14363 -157.75463 33808 ft 487 kts 262°
2026-05-05 19:03 61.13422 -157.89336 33805 ft 487 kts 262°
2026-05-05 19:03 61.12466 -158.03215 33815 ft 487 kts 262°
2026-05-05 19:04 61.11495 -158.17079 33816 ft 486 kts 262°
2026-05-05 19:04 61.10513 -158.30897 33821 ft 486 kts 262°
2026-05-05 19:05 61.09516 -158.44724 33825 ft 486 kts 262°
2026-05-05 19:05 61.08505 -158.58546 33833 ft 486 kts 262°
2026-05-05 19:06 61.07481 -158.72335 33843 ft 485 kts 262°
2026-05-05 19:06 61.06445 -158.86101 33851 ft 486 kts 262°
2026-05-05 19:07 61.05571 -158.97554 33849 ft 486 kts 262°
2026-05-05 19:07 61.04330 -159.13590 33854 ft 486 kts 262°
2026-05-05 19:08 61.03248 -159.27384 33857 ft 487 kts 262°
2026-05-05 19:08 61.02336 -159.38848 33857 ft 487 kts 262°
2026-05-05 19:09 61.01038 -159.54955 33856 ft 488 kts 262°
2026-05-05 19:09 61.00101 -159.66439 33857 ft 489 kts 262°
2026-05-05 19:10 60.98956 -159.80292 33863 ft 490 kts 261°
2026-05-05 19:10 60.97795 -159.94157 33871 ft 491 kts 261°
2026-05-05 19:11 60.96621 -160.07993 33874 ft 491 kts 261°
2026-05-05 19:11 60.95433 -160.21826 33879 ft 490 kts 261°
2026-05-05 19:12 60.94235 -160.35598 33885 ft 489 kts 261°
2026-05-05 19:12 60.93030 -160.49270 33885 ft 488 kts 261°
2026-05-05 19:13 60.91804 -160.63027 33897 ft 488 kts 261°
2026-05-05 19:13 60.90563 -160.76775 33899 ft 489 kts 261°
2026-05-05 19:14 60.89307 -160.90532 33916 ft 490 kts 261°
2026-05-05 19:14 60.88037 -161.04268 33921 ft 490 kts 261°
2026-05-05 19:15 60.86760 -161.17919 33928 ft 489 kts 261°
2026-05-05 19:15 60.85466 -161.31597 33940 ft 488 kts 261°
2026-05-05 19:16 60.84160 -161.45241 33933 ft 487 kts 261°
2026-05-05 19:16 60.82840 -161.58884 33935 ft 488 kts 261°
2026-05-05 19:17 60.81501 -161.72560 33954 ft 490 kts 261°
2026-05-05 19:17 60.80156 -161.86150 33953 ft 490 kts 261°
2026-05-05 19:18 60.78789 -161.99801 33954 ft 489 kts 261°
2026-05-05 19:18 60.77412 -162.13409 33957 ft 487 kts 261°
2026-05-05 19:19 60.76024 -162.26990 33959 ft 488 kts 261°
2026-05-05 19:19 60.74619 -162.40572 33978 ft 489 kts 261°
2026-05-05 19:20 60.73197 -162.54187 33987 ft 489 kts 261°
2026-05-05 19:20 60.71770 -162.67697 33997 ft 490 kts 261°
2026-05-05 19:21 60.70318 -162.81301 33999 ft 489 kts 261°
2026-05-05 19:21 60.68573 -162.94737 34017 ft 490 kts 257°
2026-05-05 19:22 60.66689 -163.08117 34022 ft 491 kts 257°
2026-05-05 19:22 60.64793 -163.21474 34026 ft 491 kts 257°
2026-05-05 19:23 60.62891 -163.34753 34023 ft 490 kts 257°
2026-05-05 19:23 60.60973 -163.48049 34033 ft 489 kts 257°
2026-05-05 19:24 60.59043 -163.61307 34041 ft 488 kts 257°
2026-05-05 19:24 60.57102 -163.74546 34047 ft 488 kts 257°
2026-05-05 19:25 60.55145 -163.87785 34045 ft 490 kts 257°
2026-05-05 19:25 60.53170 -164.01039 34055 ft 490 kts 257°
2026-05-05 19:26 60.51183 -164.14266 34062 ft 489 kts 257°
2026-05-05 19:26 60.49188 -164.27453 34077 ft 488 kts 257°
2026-05-05 19:27 60.47184 -164.40593 34078 ft 487 kts 257°
2026-05-05 19:27 60.45170 -164.53695 34085 ft 486 kts 257°
2026-05-05 19:28 60.43147 -164.66759 34100 ft 486 kts 257°
2026-05-05 19:28 60.41363 -164.79907 34125 ft 481 kts 264°
2026-05-05 19:29 60.40125 -164.93219 34113 ft 481 kts 264°
2026-05-05 19:29 60.38883 -165.06392 34102 ft 479 kts 264°
2026-05-05 19:30 60.37625 -165.19607 34096 ft 479 kts 264°
2026-05-05 19:30 60.36350 -165.32837 34091 ft 480 kts 264°
2026-05-05 19:31 60.35059 -165.46091 34086 ft 481 kts 264°
2026-05-05 19:31 60.33754 -165.59333 34082 ft 480 kts 264°
2026-05-05 19:32 60.32441 -165.72523 34092 ft 478 kts 264°
2026-05-05 19:32 60.31117 -165.85685 34084 ft 479 kts 264°
2026-05-05 19:33 60.29777 -165.98851 34087 ft 480 kts 264°
2026-05-05 19:33 60.28431 -166.11949 34091 ft 480 kts 264°
2026-05-05 19:34 60.27064 -166.25111 34089 ft 479 kts 264°
2026-05-05 19:35 60.24990 -166.44824 34097 ft 478 kts 264°
2026-05-05 19:35 60.23603 -166.57846 34102 ft 477 kts 264°
2026-05-05 19:36 60.22197 -166.70918 34114 ft 478 kts 264°
2026-05-05 19:36 60.20778 -166.83973 34108 ft 478 kts 264°
2026-05-05 19:37 60.19344 -166.97040 34115 ft 478 kts 264°
2026-05-05 19:37 60.17899 -167.10073 34114 ft 477 kts 263°
2026-05-05 19:38 60.16443 -167.23086 34118 ft 478 kts 263°
2026-05-05 19:38 60.14971 -167.36111 34120 ft 478 kts 263°
2026-05-05 19:39 60.13486 -167.49124 34123 ft 479 kts 263°
2026-05-05 19:39 60.11986 -167.62150 34126 ft 479 kts 263°
2026-05-05 19:40 60.10483 -167.75077 34123 ft 478 kts 263°
2026-05-05 19:40 60.08962 -167.88036 34126 ft 477 kts 263°
2026-05-05 19:41 60.07435 -168.00935 34125 ft 475 kts 263°
2026-05-05 19:41 60.05896 -168.13815 34130 ft 476 kts 262°
2026-05-05 19:42 60.04339 -168.26724 34131 ft 478 kts 262°
2026-05-05 19:42 60.02777 -168.39563 34131 ft 478 kts 262°
2026-05-05 19:43 60.01196 -168.52436 34134 ft 476 kts 262°
2026-05-05 19:43 59.99608 -168.65265 34139 ft 475 kts 262°
2026-05-05 19:44 59.98008 -168.78067 34133 ft 475 kts 262°
2026-05-05 19:44 59.96397 -168.90854 34133 ft 475 kts 261°
2026-05-05 19:45 59.94770 -169.03652 34150 ft 476 kts 261°
2026-05-05 19:45 59.93128 -169.16458 34144 ft 476 kts 261°
2026-05-05 19:46 59.91478 -169.29215 34138 ft 474 kts 261°
2026-05-05 19:46 59.89825 -169.41889 34134 ft 472 kts 261°
2026-05-05 19:47 59.88172 -169.54465 34138 ft 473 kts 260°
2026-05-05 19:47 59.86492 -169.67135 34136 ft 474 kts 260°
2026-05-05 19:48 59.84797 -169.79813 34137 ft 474 kts 260°
2026-05-05 19:48 59.83094 -169.92454 34140 ft 473 kts 260°
2026-05-05 19:49 59.81382 -170.05053 34140 ft 472 kts 259°
2026-05-05 19:49 59.79662 -170.17612 34146 ft 471 kts 259°
2026-05-05 19:50 59.77931 -170.30150 34145 ft 471 kts 259°
2026-05-05 19:50 59.76185 -170.42698 34144 ft 472 kts 259°
2026-05-05 19:51 59.74425 -170.55247 34148 ft 472 kts 259°
2026-05-05 19:51 59.72663 -170.67714 34151 ft 473 kts 259°
2026-05-05 19:52 59.70880 -170.80226 34155 ft 472 kts 258°
2026-05-05 19:52 59.69087 -170.92720 34171 ft 470 kts 258°
2026-05-05 19:53 59.67288 -171.05155 34164 ft 470 kts 258°
2026-05-05 19:53 59.65475 -171.17597 34158 ft 470 kts 258°
2026-05-05 19:54 59.63650 -171.30021 34163 ft 471 kts 258°
2026-05-05 19:54 59.61808 -171.42468 34163 ft 471 kts 258°
2026-05-05 19:55 59.59956 -171.54893 34162 ft 472 kts 257°
2026-05-05 19:55 59.58102 -171.67233 34168 ft 471 kts 257°
2026-05-05 19:56 59.56233 -171.79590 34170 ft 469 kts 257°
2026-05-05 19:56 59.54288 -171.91859 34191 ft 470 kts 252°
2026-05-05 19:57 59.51846 -172.03847 34181 ft 472 kts 252°
2026-05-05 19:57 59.49387 -172.15896 34620 ft 474 kts 252°
2026-05-05 19:57 59.48151 -172.21922 34907 ft 475 kts 252°
2026-05-05 19:58 59.46912 -172.27934 35185 ft 475 kts 251°
2026-05-05 19:58 59.44832 -172.38003 35185 ft 477 kts 251°
2026-05-05 19:59 59.42336 -172.50007 35183 ft 473 kts 251°
2026-05-05 19:59 59.39434 -172.63892 35185 ft 472 kts 251°
2026-05-05 20:00 59.37333 -172.73878 35188 ft 472 kts 251°
2026-05-05 20:00 59.34837 -172.85687 35194 ft 472 kts 251°
2026-05-05 20:01 59.32309 -172.97573 35193 ft 473 kts 251°
2026-05-05 20:01 59.29765 -173.09467 35197 ft 473 kts 251°
2026-05-05 20:02 59.27214 -173.21324 35192 ft 472 kts 250°
2026-05-05 20:02 59.24660 -173.33128 35194 ft 471 kts 250°
2026-05-05 20:03 59.22099 -173.44901 35195 ft 470 kts 250°
2026-05-05 20:03 59.19533 -173.56626 35198 ft 469 kts 250°
2026-05-05 20:04 59.16960 -173.68320 35208 ft 469 kts 250°
2026-05-05 20:04 59.14372 -173.80018 35204 ft 470 kts 250°
2026-05-05 20:05 59.11769 -173.91714 35206 ft 471 kts 250°
2026-05-05 20:05 59.09173 -174.03319 35204 ft 470 kts 250°
2026-05-05 20:06 59.06554 -174.14958 35201 ft 469 kts 249°
2026-05-05 20:06 59.03953 -174.26568 35205 ft 468 kts 250°
2026-05-05 20:07 59.01469 -174.38232 35205 ft 467 kts 250°
2026-05-05 20:07 58.98913 -174.49802 35206 ft 466 kts 250°
2026-05-05 20:08 58.96392 -174.61339 35213 ft 467 kts 250°
2026-05-05 20:08 58.93829 -174.72906 35211 ft 468 kts 250°
2026-05-05 20:09 58.91258 -174.84489 35209 ft 468 kts 250°
2026-05-05 20:09 58.88670 -174.96065 35214 ft 468 kts 249°
2026-05-05 20:10 58.86081 -175.07588 35210 ft 466 kts 249°
2026-05-05 20:10 58.83511 -175.18968 35210 ft 465 kts 249°
2026-05-05 20:11 58.80917 -175.30389 35227 ft 464 kts 249°
2026-05-05 20:11 58.78309 -175.41815 35256 ft 466 kts 249°
2026-05-05 20:11 58.76999 -175.47528 35613 ft 465 kts 249°
2026-05-05 20:12 58.75687 -175.53232 35875 ft 465 kts 249°
2026-05-05 20:12 58.74372 -175.58942 36149 ft 466 kts 249°
2026-05-05 20:12 58.73055 -175.64642 36418 ft 466 kts 249°
2026-05-05 20:12 58.71732 -175.70348 36689 ft 467 kts 249°
2026-05-05 20:13 58.70408 -175.76047 36953 ft 467 kts 249°
2026-05-05 20:13 58.69078 -175.81756 37215 ft 467 kts 249°
2026-05-05 20:13 58.67746 -175.87461 37472 ft 468 kts 249°
2026-05-05 20:13 58.66409 -175.93168 37729 ft 468 kts 249°
2026-05-05 20:14 58.65087 -175.98799 37994 ft 468 kts 249°
2026-05-05 20:14 58.63747 -176.04492 38235 ft 468 kts 249°
2026-05-05 20:14 58.62395 -176.10224 38216 ft 471 kts 249°
2026-05-05 20:15 58.59693 -176.21613 38213 ft 467 kts 249°
2026-05-05 20:15 58.57004 -176.32907 38218 ft 465 kts 249°
2026-05-05 20:16 58.54307 -176.44166 38221 ft 465 kts 249°
2026-05-05 20:16 58.51600 -176.55415 38216 ft 464 kts 248°
2026-05-05 20:17 58.48908 -176.66540 38224 ft 464 kts 248°
2026-05-05 20:17 58.46192 -176.77708 38217 ft 463 kts 248°
2026-05-05 20:18 58.43466 -176.88858 38214 ft 463 kts 248°
2026-05-05 20:18 58.40726 -177.00011 38215 ft 463 kts 248°
2026-05-05 20:19 58.37978 -177.11139 38219 ft 464 kts 248°
2026-05-05 20:19 58.35226 -177.22284 38230 ft 465 kts 248°
2026-05-05 20:20 58.32463 -177.33417 38228 ft 465 kts 248°
2026-05-05 20:20 58.29712 -177.44440 38221 ft 464 kts 248°
2026-05-05 20:21 58.26942 -177.55490 38214 ft 463 kts 248°
2026-05-05 20:21 58.24162 -177.66519 38215 ft 462 kts 248°
2026-05-05 20:22 58.21383 -177.77496 38216 ft 461 kts 247°
2026-05-05 20:22 58.18602 -177.88424 38219 ft 460 kts 247°
2026-05-05 20:23 58.15827 -177.99276 38219 ft 460 kts 247°
2026-05-05 20:23 58.13022 -178.10186 38217 ft 461 kts 247°
2026-05-05 20:24 58.10203 -178.21103 38217 ft 462 kts 247°
2026-05-05 20:24 58.07375 -178.31998 38225 ft 461 kts 247°
2026-05-05 20:25 58.04544 -178.42854 38216 ft 460 kts 246°
2026-05-05 20:25 58.01732 -178.53587 38218 ft 458 kts 246°
2026-05-05 20:26 57.98897 -178.64350 38212 ft 457 kts 246°
2026-05-05 20:26 57.96060 -178.75077 38213 ft 457 kts 246°
2026-05-05 20:27 57.93214 -178.85781 38213 ft 458 kts 246°
2026-05-05 20:27 57.90356 -178.96482 38210 ft 457 kts 246°
2026-05-05 20:28 57.87503 -179.07112 38210 ft 457 kts 246°
2026-05-05 20:28 57.84633 -179.17757 38207 ft 457 kts 246°
2026-05-05 20:29 57.81754 -179.28385 38209 ft 456 kts 245°
2026-05-05 20:29 57.78869 -179.38988 38211 ft 455 kts 245°
2026-05-05 20:30 57.75985 -179.49536 38199 ft 455 kts 245°
2026-05-05 20:30 57.73118 -179.59971 38205 ft 454 kts 245°
2026-05-05 20:31 57.70215 -179.70493 38204 ft 454 kts 245°
2026-05-05 20:31 57.67305 -179.80990 38196 ft 455 kts 245°
2026-05-05 20:32 57.64379 -179.91497 38195 ft 456 kts 245°
2026-05-05 20:32 57.61438 179.97994 38203 ft 457 kts 245°
2026-05-05 20:33 57.58489 179.87499 38206 ft 456 kts 244°
2026-05-05 20:33 57.55555 179.77110 38201 ft 455 kts 244°
2026-05-05 20:34 57.52604 179.66704 38186 ft 454 kts 244°
2026-05-05 20:34 57.49648 179.56329 38190 ft 453 kts 244°
2026-05-05 20:35 57.46688 179.45986 38178 ft 452 kts 244°
2026-05-05 20:35 57.43722 179.35669 38183 ft 453 kts 244°
2026-05-05 20:36 57.40749 179.25372 38177 ft 453 kts 244°
2026-05-05 20:36 57.37782 179.15144 38181 ft 453 kts 243°
2026-05-05 20:37 57.34788 179.04865 38178 ft 454 kts 243°
2026-05-05 20:37 57.31783 178.94595 38173 ft 453 kts 243°
2026-05-05 20:38 57.28772 178.84352 38168 ft 453 kts 243°
2026-05-05 20:38 57.25759 178.74143 38171 ft 452 kts 243°
2026-05-05 20:39 57.22742 178.63970 38163 ft 451 kts 243°
2026-05-05 20:39 57.19718 178.53815 38165 ft 450 kts 242°
2026-05-05 20:40 57.16696 178.43710 38157 ft 450 kts 242°
2026-05-05 20:40 57.13668 178.33628 38160 ft 451 kts 242°
2026-05-05 20:41 57.10624 178.23538 38157 ft 451 kts 242°
2026-05-05 20:41 57.07570 178.13460 38152 ft 451 kts 242°
2026-05-05 20:42 57.04513 178.03412 38148 ft 450 kts 242°
2026-05-05 20:42 57.01449 177.93382 38147 ft 450 kts 242°
2026-05-05 20:43 56.98401 177.83451 38140 ft 449 kts 241°
2026-05-05 20:43 56.95329 177.73485 38139 ft 449 kts 241°
2026-05-05 20:44 56.92254 177.63548 38131 ft 448 kts 241°
2026-05-05 20:44 56.89170 177.53622 38127 ft 448 kts 241°
2026-05-05 20:45 56.84537 177.38794 38123 ft 447 kts 240°
2026-05-05 20:45 56.81436 177.28935 38121 ft 448 kts 240°
2026-05-05 20:46 56.78301 177.19065 38121 ft 450 kts 240°
2026-05-05 20:46 56.75162 177.09194 38125 ft 451 kts 240°
2026-05-05 20:47 56.72538 177.00984 38123 ft 451 kts 240°
2026-05-05 20:47 56.69378 176.91130 38115 ft 450 kts 239°
2026-05-05 20:48 56.66213 176.81303 38110 ft 450 kts 239°
2026-05-05 20:48 56.63046 176.71509 38104 ft 449 kts 239°
2026-05-05 20:49 56.59876 176.61745 38098 ft 449 kts 239°
2026-05-05 20:49 56.56696 176.51991 38093 ft 449 kts 239°
2026-05-05 20:50 56.53505 176.42246 38092 ft 450 kts 239°
2026-05-05 20:50 56.50324 176.32567 38091 ft 450 kts 239°
2026-05-05 20:51 56.47113 176.22836 38091 ft 450 kts 238°
2026-05-05 20:51 56.43895 176.13127 38087 ft 450 kts 238°
2026-05-05 20:52 56.40668 176.03429 38085 ft 450 kts 238°
2026-05-05 20:52 56.37430 175.93733 38078 ft 452 kts 238°
2026-05-05 20:53 56.34177 175.84036 38069 ft 453 kts 238°
2026-05-05 20:53 56.30906 175.74324 38061 ft 454 kts 238°
2026-05-05 20:54 56.27620 175.64604 38062 ft 455 kts 238°
2026-05-05 20:54 56.24322 175.54891 38058 ft 454 kts 237°
2026-05-05 20:55 56.21025 175.45218 38045 ft 453 kts 237°
2026-05-05 20:55 56.17728 175.35584 38030 ft 452 kts 237°
2026-05-05 20:56 56.14429 175.25981 38029 ft 452 kts 237°
2026-05-05 20:56 56.11119 175.16387 38020 ft 453 kts 237°
2026-05-05 20:57 56.07820 175.06862 38020 ft 453 kts 237°
2026-05-05 20:57 56.04491 174.97288 38017 ft 453 kts 237°
2026-05-05 20:58 56.01159 174.87740 38017 ft 453 kts 236°
2026-05-05 20:58 55.97820 174.78214 38011 ft 452 kts 236°
2026-05-05 20:59 55.94470 174.68693 38004 ft 453 kts 236°
2026-05-05 20:59 55.91100 174.59151 37997 ft 455 kts 236°
2026-05-05 21:00 55.87719 174.49615 37997 ft 456 kts 236°
2026-05-05 21:00 55.84320 174.40068 37992 ft 456 kts 236°
2026-05-05 21:01 55.80925 174.30568 37992 ft 455 kts 236°
2026-05-05 21:01 55.77521 174.21081 37972 ft 454 kts 236°
2026-05-05 21:02 55.74116 174.11627 37969 ft 454 kts 236°
2026-05-05 21:02 55.70708 174.02203 37961 ft 454 kts 235°
2026-05-05 21:03 55.67287 173.92777 37961 ft 455 kts 235°
2026-05-05 21:03 55.63871 173.83400 37959 ft 457 kts 235°
2026-05-05 21:04 55.60415 173.73954 37945 ft 457 kts 235°
2026-05-05 21:04 55.56958 173.64538 37943 ft 456 kts 235°
2026-05-05 21:05 55.53502 173.55162 37935 ft 455 kts 234°
2026-05-05 21:05 55.50040 173.45807 37928 ft 454 kts 234°
2026-05-05 21:06 55.46603 173.36553 37921 ft 454 kts 234°
2026-05-05 21:06 55.43134 173.27250 37914 ft 455 kts 234°
2026-05-05 21:07 55.39646 173.17930 37903 ft 456 kts 234°
2026-05-05 21:07 55.36147 173.08615 37902 ft 457 kts 234°
2026-05-05 21:08 55.32630 172.99288 37895 ft 458 kts 234°
2026-05-05 21:08 55.29101 172.89965 37887 ft 458 kts 234°
2026-05-05 21:09 55.25570 172.80672 37862 ft 457 kts 233°
2026-05-05 21:09 55.22036 172.71406 37854 ft 456 kts 233°
2026-05-05 21:10 55.18499 172.62168 37859 ft 457 kts 233°
2026-05-05 21:10 55.14946 172.52920 37855 ft 458 kts 233°
2026-05-05 21:11 55.11379 172.43673 37845 ft 459 kts 233°
2026-05-05 21:11 55.07826 172.34497 37842 ft 459 kts 233°
2026-05-05 21:12 55.04240 172.25270 37837 ft 459 kts 233°
2026-05-05 21:12 55.00649 172.16062 37820 ft 462 kts 233°
2026-05-05 21:13 54.96978 172.06692 37812 ft 475 kts 233°
2026-05-05 21:13 54.93185 171.97124 37804 ft 482 kts 228°
2026-05-05 21:14 54.88927 171.88081 37793 ft 485 kts 228°
2026-05-05 21:14 54.84645 171.79016 37784 ft 485 kts 228°
2026-05-05 21:15 54.80386 171.70050 37773 ft 484 kts 227°
2026-05-05 21:15 54.76103 171.61059 37765 ft 484 kts 227°
2026-05-05 21:16 54.71813 171.52092 37759 ft 483 kts 227°
2026-05-05 21:16 54.67520 171.43148 37748 ft 483 kts 227°
2026-05-05 21:17 54.63214 171.34209 37742 ft 485 kts 227°
2026-05-05 21:17 54.58890 171.25266 37734 ft 485 kts 227°
2026-05-05 21:18 54.54558 171.16343 37714 ft 485 kts 227°
2026-05-05 21:18 54.50220 171.07433 37707 ft 485 kts 227°
2026-05-05 21:19 54.45873 170.98543 37706 ft 486 kts 227°
2026-05-05 21:19 54.41512 170.89655 37694 ft 487 kts 227°
2026-05-05 21:20 54.37144 170.80782 37687 ft 487 kts 227°
2026-05-05 21:20 54.32763 170.71918 37680 ft 487 kts 227°
2026-05-05 21:21 54.28403 170.63127 37677 ft 487 kts 227°
2026-05-05 21:21 54.24008 170.54296 37667 ft 487 kts 227°
2026-05-05 21:22 54.19604 170.45481 37661 ft 487 kts 226°
2026-05-05 21:22 54.15189 170.36676 37646 ft 488 kts 226°
2026-05-05 21:23 54.10761 170.27874 37643 ft 489 kts 226°
2026-05-05 21:23 54.06324 170.19087 37635 ft 489 kts 226°
2026-05-05 21:24 54.01910 170.10375 37628 ft 489 kts 226°
2026-05-05 21:24 53.97457 170.01622 37620 ft 490 kts 226°
2026-05-05 21:25 53.92993 169.92873 37612 ft 489 kts 226°
2026-05-05 21:25 53.88527 169.84157 37605 ft 489 kts 226°
2026-05-05 21:26 53.84048 169.75440 37594 ft 489 kts 226°
2026-05-05 21:26 53.79573 169.66766 37586 ft 490 kts 226°
2026-05-05 21:27 53.75081 169.58088 37577 ft 490 kts 226°
2026-05-05 21:27 53.70593 169.49449 37567 ft 491 kts 226°
2026-05-05 21:28 53.66080 169.40793 37566 ft 491 kts 226°
2026-05-05 21:28 53.61895 169.31700 37562 ft 494 kts 238°
2026-05-05 21:29 53.58625 169.21509 37555 ft 495 kts 239°
2026-05-05 21:29 53.55359 169.11306 37544 ft 495 kts 238°
2026-05-05 21:30 53.52086 169.01136 37526 ft 495 kts 238°
2026-05-05 21:30 53.48826 168.91041 37521 ft 495 kts 238°
2026-05-05 21:31 53.45531 168.80886 37521 ft 496 kts 238°
2026-05-05 21:31 53.42218 168.70713 37520 ft 496 kts 238°
2026-05-05 21:32 53.38893 168.60550 37509 ft 496 kts 238°
2026-05-05 21:32 53.35569 168.50429 37510 ft 496 kts 238°
2026-05-05 21:33 53.32799 168.42028 37508 ft 496 kts 238°
2026-05-05 21:33 53.28906 168.30273 37497 ft 497 kts 238°
2026-05-05 21:34 53.26099 168.21871 37502 ft 498 kts 238°
2026-05-05 21:34 53.22711 168.11747 37492 ft 500 kts 238°
2026-05-05 21:35 53.19309 168.01628 37492 ft 500 kts 238°
2026-05-05 21:35 53.15901 167.91530 37492 ft 499 kts 238°
2026-05-05 21:36 53.12490 167.81469 37489 ft 497 kts 238°
2026-05-05 21:36 53.09100 167.71506 37488 ft 497 kts 238°
2026-05-05 21:37 53.05680 167.61496 37488 ft 497 kts 238°
2026-05-05 21:37 53.02254 167.51510 37487 ft 498 kts 238°
2026-05-05 21:38 52.98811 167.41514 37488 ft 498 kts 238°
2026-05-05 21:38 52.95359 167.31534 37483 ft 499 kts 238°
2026-05-05 21:39 52.91922 167.21635 37480 ft 499 kts 238°
2026-05-05 21:39 52.88453 167.11683 37478 ft 498 kts 238°
2026-05-05 21:40 52.84978 167.01756 37479 ft 498 kts 238°
2026-05-05 21:40 52.81496 166.91848 37475 ft 497 kts 238°
2026-05-05 21:41 52.78017 166.81987 37463 ft 497 kts 238°
2026-05-05 21:41 52.74530 166.72142 37462 ft 496 kts 238°
2026-05-05 21:42 52.71042 166.62333 37462 ft 495 kts 238°
2026-05-05 21:42 52.67568 166.52601 37461 ft 495 kts 238°
2026-05-05 21:43 52.64059 166.42808 37467 ft 496 kts 238°
2026-05-05 21:43 52.60536 166.33016 37461 ft 497 kts 238°
2026-05-05 21:44 52.57000 166.23227 37468 ft 498 kts 238°
2026-05-05 21:44 52.53475 166.13506 37465 ft 499 kts 237°
2026-05-05 21:45 52.49916 166.03727 37466 ft 498 kts 237°
2026-05-05 21:45 52.46353 165.93977 37460 ft 497 kts 237°
2026-05-05 21:46 52.42794 165.84274 37457 ft 496 kts 237°
2026-05-05 21:46 52.39232 165.74602 37456 ft 495 kts 237°
2026-05-05 21:47 52.35663 165.64946 37455 ft 495 kts 237°
2026-05-05 21:47 52.32085 165.55304 37457 ft 496 kts 237°
2026-05-05 21:48 52.28493 165.45659 37453 ft 497 kts 237°
2026-05-05 21:48 52.24915 165.36089 37452 ft 497 kts 237°
2026-05-05 21:49 52.21305 165.26470 37458 ft 497 kts 237°
2026-05-05 21:49 52.17689 165.16871 37443 ft 497 kts 237°
2026-05-05 21:50 52.14065 165.07288 37448 ft 496 kts 237°
2026-05-05 21:50 52.10443 164.97747 37447 ft 495 kts 237°
2026-05-05 21:51 52.06818 164.88232 37450 ft 495 kts 237°
2026-05-05 21:51 52.03186 164.78734 37449 ft 495 kts 237°
2026-05-05 21:52 51.97705 164.64470 37442 ft 496 kts 237°
2026-05-05 21:53 51.94042 164.54980 37445 ft 497 kts 237°
2026-05-05 21:53 51.90395 164.45566 37446 ft 496 kts 237°
2026-05-05 21:54 51.86703 164.36073 37450 ft 495 kts 237°
2026-05-05 21:54 51.83057 164.26730 37441 ft 495 kts 237°
2026-05-05 21:55 51.79375 164.17332 37440 ft 494 kts 237°
2026-05-05 21:55 51.75692 164.07965 37439 ft 494 kts 237°
2026-05-05 21:56 51.71997 163.98601 37444 ft 494 kts 237°
2026-05-05 21:56 51.68295 163.89252 37444 ft 494 kts 237°
2026-05-05 21:57 51.64594 163.79943 37443 ft 493 kts 237°
2026-05-05 21:57 51.60886 163.70649 37446 ft 493 kts 237°
2026-05-05 21:58 51.57178 163.61384 37445 ft 493 kts 237°
2026-05-05 21:58 51.53465 163.52141 37447 ft 492 kts 237°
2026-05-05 21:59 51.49751 163.42930 37448 ft 491 kts 236°
2026-05-05 21:59 51.46035 163.33747 37452 ft 491 kts 236°
2026-05-05 22:00 51.42337 163.24638 37452 ft 490 kts 236°
2026-05-05 22:00 51.38591 163.15448 37439 ft 489 kts 236°
2026-05-05 22:01 51.34894 163.06405 37450 ft 489 kts 236°
2026-05-05 22:01 51.31163 162.97314 37443 ft 488 kts 236°
2026-05-05 22:02 51.27436 162.88263 37443 ft 487 kts 236°
2026-05-05 22:02 51.23703 162.79231 37458 ft 486 kts 236°
2026-05-05 22:03 51.20607 162.71761 37461 ft 486 kts 236°